SES-5 (38652 NORAD) Tracking and Keplerian Element Data

This shows tracking and keplerian element data for the satellite.

Feedback or suggestion? Click here.




ElementValue
Catalog38652
NameSES-5
Epoch Orbit3947
Epoch Day34.68461644
Epoch Year2025
RAAN292.7492
Inclination0.0541
Eccentricity0.0002037
Argument of Perigee21.2422
Mean Anonmoly71.5298
Mean Motion1.00270684
Decay Rate3.8E-07
L11 38652U 12036A 25034.68461644 .00000038 00000+0 00000+0 0 9998
L22 38652 0.0541 292.7492 0002037 21.2422 71.5298 1.00270684 39479



Live tracking and technical data element details for SES-5 (NORAD 38652). SES-5 can be tracked NOW for your location showing map with azimuth and elevation plus other details from your city location.







IsCatalogInMostPopularTable: catalog: 38652, numindb: 665
Update: records affected: 1



GetName: 38652 SES-5

Hit Count: updated at: Sat, 17 May 2025 06:38:20 GMT